Content
SEND FEEDBACK

Daily
Averages
Monthly
Summary
Canada

VICTORIA, BRITISH COLUMBIA


Home > North America > Canada > British Columbia
Elevation: 62 feet     Latitude: 48 39N     Longitude: 123 26W

WEATHER
 
SELECT A DAY
Number of Records: 195,763;   Date Range: 1/1/95 - 9/17/14
 
SHARE

PRINT THIS DATA

[ ← Previous Day ]
WEATHER ALMANAC - APRIL 24, 2013
[ Next Day → ]
[ °C ]   °F
Weather ElementAverageHighLow
Temperature51.1 °F62.6 °F (3:00 pm)39.2 °F (6:00 am)
Dewpoint39 °F42.8 °F (8:00 pm)33.8 °F (6:00 am)
Humidity63.9 %81 % (2:00 am)36 % (5:00 pm)
Barometer30.25 in30.35 in (4:00 am)30.08 in (8:00 pm)
Wind Speed5.2 mph8.1 mph (6:00 pm)
Weather ElementAverage
Visibility29.7 mi
Wind DirectionSSE (170.4 °)

Weather ElementTotal
Precipitation---
Heating Degree Days14.1 (Base 65)
Growing Degree Days0.9 (Base 50)
Averaged from 26 records on April 24, 2013
WEATHER CONDITIONS BREAKOUT
WIND DIRECTION BREAKOUT
WEATHER BY HOUR - APRIL 24, 2013
[ °C ]   °F
Local TimeTemperatureDewpointHumidityBarometerVisibilityWind DirectionWind SpeedGust SpeedPrecipitationEventsConditions
1:00 AM42.8 °F35.6 °F76 %30.34 in30.0 miWSW (240°)3.5 mphClear
2:00 AM41.0 °F35.6 °F81 %30.34 in30.0 miWest (260°)3.5 mphClear
3:00 AM41.0 °F35.6 °F81 %30.34 in30.0 miWest (270°)5.8 mphClear
4:00 AM41.0 °F35.6 °F81 %30.35 in30.0 miWest (280°)6.9 mphClear
5:00 AM41.0 °F35.0 °F73 %30.35 in28.0 miWSW (240°)4.6 mph
5:00 AM41.0 °F35.6 °F81 %30.35 in30.0 miWSW (250°)4.6 mphClear
6:00 AM39.2 °F33.8 °F81 %30.35 in30.0 miWSW (240°)6.9 mphPartly Cloudy
7:00 AM41.0 °F35.6 °F81 %30.34 in30.0 miWest (260°)5.8 mphPartly Cloudy
8:00 AM46.4 °F39.2 °F76 %30.34 in30.0 miWest (270°)6.9 mphPartly Cloudy
9:00 AM51.8 °F41.0 °F67 %30.34 in30.0 miWNW (290°)5.8 mphPartly Cloudy
10:00 AM55.4 °F41.0 °F58 %30.32 in30.0 miWest (260°)2.3 mphScattered Clouds
11:00 AM56.0 °F42.0 °F47 %30.31 in28.0 miEast (90°)5.8 mphClear
11:00 AM57.2 °F41.0 °F55 %30.31 in30.0 miEast (90°)5.8 mphMostly Cloudy
12:00 PM59.0 °F39.2 °F48 %30.29 in30.0 miESE (110°)6.9 mphMostly Cloudy
1:00 PM59.0 °F41.0 °F51 %30.27 in30.0 miEast (80°)5.8 mphPartly Cloudy
2:00 PM60.8 °F39.2 °F45 %30.24 in30.0 miEast (90°)4.6 mphMostly Cloudy
3:00 PM62.6 °F41.0 °F45 %30.22 in30.0 miEast (90°)5.8 mphMostly Cloudy
4:00 PM62.6 °F41.0 °F45 %30.19 in30.0 miEast (100°)6.9 mphMostly Cloudy
5:00 PM61.0 °F41.0 °F36 %30.16 in28.0 miESE (110°)5.8 mphClear
5:00 PM60.8 °F41.0 °F48 %30.16 in30.0 miESE (110°)5.8 mphMostly Cloudy
6:00 PM60.8 °F41.0 °F48 %30.13 in30.0 miESE (120°)8.1 mphPartly Cloudy
8:00 PM55.4 °F42.8 °F63 %30.08 in30.0 miESE (120°)6.9 mphMostly Cloudy
9:00 PM51.8 °F41.0 °F67 %30.09 in30.0 miNNE (30°)5.8 mphScattered Clouds
10:00 PM46.4 °F39.2 °F76 %30.09 in30.0 miWest (260°)3.5 mphMostly Cloudy
11:00 PM47.0 °F40.0 °F70 %30.08 in28.0 miCalmScattered Clouds
11:00 PM46.4 °F41.0 °F81 %30.08 in30.0 miCalmMostly Cloudy
Hourly data recorded from CYYJ, located miles away from Victoria, British Columbia







STORIES FROM OUR PARTNERS